Year,Month,Day,Hour,Minute,Value (Times are PST for temperature in C)
2018,07,19,00,00,14.30
2018,07,19,00,01,14.30
2018,07,19,00,02,14.30
2018,07,19,00,03,14.30
2018,07,19,00,04,14.30
2018,07,19,00,05,14.30
2018,07,19,00,06,14.30
2018,07,19,00,07,14.30
2018,07,19,00,08,14.30
2018,07,19,00,09,14.30
2018,07,19,00,10,14.30
2018,07,19,00,11,14.30
2018,07,19,00,12,14.30
2018,07,19,00,13,14.30
2018,07,19,00,14,14.30
2018,07,19,00,15,14.20
2018,07,19,00,16,14.20
2018,07,19,00,17,14.20
2018,07,19,00,18,14.20
2018,07,19,00,19,14.20
2018,07,19,00,20,14.20
2018,07,19,00,21,14.20
2018,07,19,00,22,14.20
2018,07,19,00,23,14.20
2018,07,19,00,24,14.20
2018,07,19,00,25,14.10
2018,07,19,00,26,14.10
2018,07,19,00,27,14.10
2018,07,19,00,28,14.10
2018,07,19,00,29,14.10
2018,07,19,00,30,14.10
2018,07,19,00,31,14.00
2018,07,19,00,32,14.00
2018,07,19,00,33,14.00
2018,07,19,00,34,14.00
2018,07,19,00,35,14.00
2018,07,19,00,36,13.90
2018,07,19,00,37,13.90
2018,07,19,00,38,13.90
2018,07,19,00,39,13.90
2018,07,19,00,40,13.90
2018,07,19,00,41,13.90
2018,07,19,00,42,13.90
2018,07,19,00,43,13.90
2018,07,19,00,44,13.90
2018,07,19,00,45,13.90
2018,07,19,00,46,13.90
2018,07,19,00,47,13.90
2018,07,19,00,48,13.90
2018,07,19,00,49,13.90
2018,07,19,00,50,13.90
2018,07,19,00,51,13.90
2018,07,19,00,52,13.80
2018,07,19,00,53,13.80
2018,07,19,00,54,13.80
2018,07,19,00,55,13.80
2018,07,19,00,56,13.80
2018,07,19,00,57,13.80
2018,07,19,00,58,13.80
2018,07,19,00,59,13.80
2018,07,19,01,00,13.80
2018,07,19,01,01,13.80
2018,07,19,01,02,13.80
2018,07,19,01,03,13.70
2018,07,19,01,04,13.70
2018,07,19,01,05,13.70
2018,07,19,01,06,13.70
2018,07,19,01,07,13.70
2018,07,19,01,08,13.70
2018,07,19,01,09,13.70
2018,07,19,01,10,13.70
2018,07,19,01,11,13.70
2018,07,19,01,12,13.70
2018,07,19,01,13,13.70
2018,07,19,01,14,13.70
2018,07,19,01,15,13.70
2018,07,19,01,16,13.70
2018,07,19,01,17,13.70
2018,07,19,01,18,13.70
2018,07,19,01,19,13.70
2018,07,19,01,20,13.70
2018,07,19,01,21,13.70
2018,07,19,01,22,13.70
2018,07,19,01,23,13.70
2018,07,19,01,24,13.70
2018,07,19,01,25,13.70
2018,07,19,01,26,13.70
2018,07,19,01,27,13.70
2018,07,19,01,28,13.70
2018,07,19,01,29,13.70
2018,07,19,01,30,13.70
2018,07,19,01,31,13.70
2018,07,19,01,32,13.70
2018,07,19,01,33,13.70
2018,07,19,01,34,13.70
2018,07,19,01,35,13.60
2018,07,19,01,36,13.60
2018,07,19,01,37,13.60
2018,07,19,01,38,13.60
2018,07,19,01,39,13.60
2018,07,19,01,40,13.60
2018,07,19,01,41,13.60
2018,07,19,01,42,13.60
2018,07,19,01,43,13.60
2018,07,19,01,44,13.60
2018,07,19,01,45,13.60
2018,07,19,01,46,13.60
2018,07,19,01,47,13.60
2018,07,19,01,48,13.60
2018,07,19,01,49,13.60
2018,07,19,01,50,13.60
2018,07,19,01,51,13.60
2018,07,19,01,52,13.60
2018,07,19,01,53,13.60
2018,07,19,01,54,13.60
2018,07,19,01,55,13.60
2018,07,19,01,56,13.60
2018,07,19,01,57,13.60
2018,07,19,01,58,13.50
2018,07,19,01,59,13.50
2018,07,19,02,00,13.50
2018,07,19,02,01,13.50
2018,07,19,02,02,13.50
2018,07,19,02,03,13.40
2018,07,19,02,04,13.40
2018,07,19,02,05,13.40
2018,07,19,02,06,13.30
2018,07,19,02,07,13.30
2018,07,19,02,08,13.30
2018,07,19,02,09,13.30
2018,07,19,02,10,13.20
2018,07,19,02,11,13.20
2018,07,19,02,12,13.20
2018,07,19,02,13,13.10
2018,07,19,02,14,13.10
2018,07,19,02,15,13.10
2018,07,19,02,16,13.00
2018,07,19,02,17,13.00
2018,07,19,02,18,13.00
2018,07,19,02,19,12.90
2018,07,19,02,20,12.90
2018,07,19,02,21,12.90
2018,07,19,02,22,12.90
2018,07,19,02,23,12.80
2018,07,19,02,24,12.80
2018,07,19,02,25,12.80
2018,07,19,02,26,12.70
2018,07,19,02,27,12.70
2018,07,19,02,28,12.60
2018,07,19,02,29,12.50
2018,07,19,02,30,12.50
2018,07,19,02,31,12.40
2018,07,19,02,32,12.40
2018,07,19,02,33,12.40
2018,07,19,02,34,12.30
2018,07,19,02,35,12.30
2018,07,19,02,36,12.30
2018,07,19,02,37,12.20
2018,07,19,02,38,12.20
2018,07,19,02,39,12.20
2018,07,19,02,40,12.20
2018,07,19,02,41,12.10
2018,07,19,02,42,12.10
2018,07,19,02,43,12.10
2018,07,19,02,44,12.10
2018,07,19,02,45,12.00
2018,07,19,02,46,12.00
2018,07,19,02,47,12.00
2018,07,19,02,48,11.90
2018,07,19,02,49,11.90
2018,07,19,02,50,11.90
2018,07,19,02,51,11.90
2018,07,19,02,52,11.90
2018,07,19,02,53,11.90
2018,07,19,02,54,11.90
2018,07,19,02,55,11.80
2018,07,19,02,56,11.80
2018,07,19,02,57,11.80
2018,07,19,02,58,11.80
2018,07,19,02,59,11.80
2018,07,19,03,00,11.70
2018,07,19,03,01,11.70
2018,07,19,03,02,11.70
2018,07,19,03,03,11.60
2018,07,19,03,04,11.60
2018,07,19,03,05,11.60
2018,07,19,03,06,11.60
2018,07,19,03,07,11.50
2018,07,19,03,08,11.50
2018,07,19,03,09,11.50
2018,07,19,03,10,11.50
2018,07,19,03,11,11.50
2018,07,19,03,12,11.50
2018,07,19,03,13,11.40
2018,07,19,03,14,11.40
2018,07,19,03,15,11.40
2018,07,19,03,16,11.40
2018,07,19,03,17,11.40
2018,07,19,03,18,11.40
2018,07,19,03,19,11.30
2018,07,19,03,20,11.30
2018,07,19,03,21,11.30
2018,07,19,03,22,11.30
2018,07,19,03,23,11.30
2018,07,19,03,24,11.30
2018,07,19,03,25,11.20
2018,07,19,03,26,11.20
2018,07,19,03,27,11.20
2018,07,19,03,28,11.20
2018,07,19,03,29,11.20
2018,07,19,03,30,11.20
2018,07,19,03,31,11.20
2018,07,19,03,32,11.20
2018,07,19,03,33,11.10
2018,07,19,03,34,11.10
2018,07,19,03,35,11.10
2018,07,19,03,36,11.10
2018,07,19,03,37,11.10
2018,07,19,03,38,11.10
2018,07,19,03,39,11.10
2018,07,19,03,40,11.10
2018,07,19,03,41,11.10
2018,07,19,03,42,11.00
2018,07,19,03,43,11.10
2018,07,19,03,44,11.10
2018,07,19,03,45,11.10
2018,07,19,03,46,11.10
2018,07,19,03,47,11.10
2018,07,19,03,48,11.10
2018,07,19,03,49,11.10
2018,07,19,03,50,11.10
2018,07,19,03,51,11.00
2018,07,19,03,52,11.00
2018,07,19,03,53,11.00
2018,07,19,03,54,11.10
2018,07,19,03,55,11.10
2018,07,19,03,56,11.10
2018,07,19,03,57,11.10
2018,07,19,03,58,11.10
2018,07,19,03,59,11.10
2018,07,19,04,00,11.10
2018,07,19,04,01,11.00
2018,07,19,04,02,11.00
2018,07,19,04,03,11.00
2018,07,19,04,04,11.00
2018,07,19,04,05,10.90
2018,07,19,04,06,10.90
2018,07,19,04,07,10.90
2018,07,19,04,08,10.90
2018,07,19,04,09,10.90
2018,07,19,04,10,10.90
2018,07,19,04,11,10.90
2018,07,19,04,12,10.90
2018,07,19,04,13,10.90
2018,07,19,04,14,10.90
2018,07,19,04,15,11.00
2018,07,19,04,16,11.00
2018,07,19,04,17,11.00
2018,07,19,04,18,11.00
2018,07,19,04,19,11.10
2018,07,19,04,20,11.10
2018,07,19,04,21,11.10
2018,07,19,04,22,11.10
2018,07,19,04,23,11.10
2018,07,19,04,24,11.10
2018,07,19,04,25,11.10
2018,07,19,04,26,11.10
2018,07,19,04,27,11.20
2018,07,19,04,28,11.20
2018,07,19,04,29,11.20
2018,07,19,04,30,11.20
2018,07,19,04,31,11.20
2018,07,19,04,32,11.20
2018,07,19,04,33,11.30
2018,07,19,04,34,11.30
2018,07,19,04,35,11.30
2018,07,19,04,36,11.30
2018,07,19,04,37,11.30
2018,07,19,04,38,11.30
2018,07,19,04,39,11.30
2018,07,19,04,40,11.30
2018,07,19,04,41,11.30
2018,07,19,04,42,11.30
2018,07,19,04,43,11.40
2018,07,19,04,44,11.40
2018,07,19,04,45,11.40
2018,07,19,04,46,11.40
2018,07,19,04,47,11.40
2018,07,19,04,48,11.40
2018,07,19,04,49,11.40
2018,07,19,04,50,11.40
2018,07,19,04,51,11.40
2018,07,19,04,52,11.40
2018,07,19,04,53,11.50
2018,07,19,04,54,11.40
2018,07,19,04,55,11.50
2018,07,19,04,56,11.50
2018,07,19,04,57,11.50
2018,07,19,04,58,11.60
2018,07,19,04,59,11.60
2018,07,19,05,00,11.60
2018,07,19,05,01,11.60
2018,07,19,05,02,11.60
2018,07,19,05,03,11.60
2018,07,19,05,04,11.60
2018,07,19,05,05,11.60
2018,07,19,05,06,11.60
2018,07,19,05,07,11.60
2018,07,19,05,08,11.60
2018,07,19,05,09,11.60
2018,07,19,05,10,11.60
2018,07,19,05,11,11.60
2018,07,19,05,12,11.60
2018,07,19,05,13,11.60
2018,07,19,05,14,11.60
2018,07,19,05,15,11.70
2018,07,19,05,16,11.70
2018,07,19,05,17,11.70
2018,07,19,05,18,11.70
2018,07,19,05,19,11.70
2018,07,19,05,20,11.70
2018,07,19,05,21,11.70
2018,07,19,05,22,11.70
2018,07,19,05,23,11.70
2018,07,19,05,24,11.70
2018,07,19,05,25,11.70
2018,07,19,05,26,11.70
2018,07,19,05,27,11.70
2018,07,19,05,28,11.70
2018,07,19,05,29,11.70
2018,07,19,05,30,11.70
2018,07,19,05,31,11.70
2018,07,19,05,32,11.70
2018,07,19,05,33,11.70
2018,07,19,05,34,11.80
2018,07,19,05,35,11.80
2018,07,19,05,36,11.90
2018,07,19,05,37,11.90
2018,07,19,05,38,12.00
2018,07,19,05,39,12.10
2018,07,19,05,40,12.10
2018,07,19,05,41,12.20
2018,07,19,05,42,12.30
2018,07,19,05,43,12.30
2018,07,19,05,44,12.30
2018,07,19,05,45,12.40
2018,07,19,05,46,12.50
2018,07,19,05,47,12.50
2018,07,19,05,48,12.60
2018,07,19,05,49,12.60
2018,07,19,05,50,12.60
2018,07,19,05,51,12.70
2018,07,19,05,52,12.70
2018,07,19,05,53,12.70
2018,07,19,05,54,12.70
2018,07,19,05,55,12.80
2018,07,19,05,56,12.80
2018,07,19,05,57,12.80
2018,07,19,05,58,12.80
2018,07,19,05,59,12.80
2018,07,19,06,00,12.90
2018,07,19,06,01,12.90
2018,07,19,06,02,12.90
2018,07,19,06,03,12.90
2018,07,19,06,04,12.90
2018,07,19,06,05,13.00
2018,07,19,06,06,13.00
2018,07,19,06,07,13.10
2018,07,19,06,08,13.10
2018,07,19,06,09,13.10
2018,07,19,06,10,13.20
2018,07,19,06,11,13.20
2018,07,19,06,12,13.20
2018,07,19,06,13,13.20
2018,07,19,06,14,13.30
2018,07,19,06,15,13.30
2018,07,19,06,16,13.30
2018,07,19,06,17,13.40
2018,07,19,06,18,13.40
2018,07,19,06,19,13.50
2018,07,19,06,20,13.50
2018,07,19,06,21,13.60
2018,07,19,06,22,13.60
2018,07,19,06,23,13.60
2018,07,19,06,24,13.70
2018,07,19,06,25,13.70
2018,07,19,06,26,13.70
2018,07,19,06,27,13.70
2018,07,19,06,28,13.80
2018,07,19,06,29,13.80
2018,07,19,06,30,13.80
2018,07,19,06,31,13.80
2018,07,19,06,32,13.90
2018,07,19,06,33,13.90
2018,07,19,06,34,13.90
2018,07,19,06,35,14.00
2018,07,19,06,36,14.00
2018,07,19,06,37,14.00
2018,07,19,06,38,14.10
2018,07,19,06,39,14.10
2018,07,19,06,40,14.10
2018,07,19,06,41,14.10
2018,07,19,06,42,14.20
2018,07,19,06,43,14.20
2018,07,19,06,44,14.20
2018,07,19,06,45,14.20
2018,07,19,06,46,14.20
2018,07,19,06,47,14.30
2018,07,19,06,48,14.30
2018,07,19,06,49,14.30
2018,07,19,06,50,14.30
2018,07,19,06,51,14.40
2018,07,19,06,52,14.40
2018,07,19,06,53,14.40
2018,07,19,06,54,14.40
2018,07,19,06,55,14.40
2018,07,19,06,56,14.40
2018,07,19,06,57,14.50
2018,07,19,06,58,14.50
2018,07,19,06,59,14.50
2018,07,19,07,00,14.60
2018,07,19,07,01,14.60
2018,07,19,07,02,14.60
2018,07,19,07,03,14.60
2018,07,19,07,04,14.60
2018,07,19,07,05,14.70
2018,07,19,07,06,14.70
2018,07,19,07,07,14.70
2018,07,19,07,08,14.70
2018,07,19,07,09,14.70
2018,07,19,07,10,14.70
2018,07,19,07,11,14.80
2018,07,19,07,12,14.80
2018,07,19,07,13,14.80
2018,07,19,07,14,14.80
2018,07,19,07,15,14.80
2018,07,19,07,16,14.80
2018,07,19,07,17,14.90
2018,07,19,07,18,14.90
2018,07,19,07,19,14.90
2018,07,19,07,20,14.90
2018,07,19,07,21,14.90
2018,07,19,07,22,14.90
2018,07,19,07,23,15.00
2018,07,19,07,24,15.00
2018,07,19,07,25,15.10
2018,07,19,07,26,15.10
2018,07,19,07,27,15.10
2018,07,19,07,28,15.10
2018,07,19,07,29,15.10
2018,07,19,07,30,15.10
2018,07,19,07,31,15.10
2018,07,19,07,32,15.10
2018,07,19,07,33,15.10
2018,07,19,07,34,15.10
2018,07,19,07,35,15.10
2018,07,19,07,36,15.10
2018,07,19,07,37,15.20
2018,07,19,07,38,15.20
2018,07,19,07,39,15.20
2018,07,19,07,40,15.20
2018,07,19,07,41,15.20
2018,07,19,07,42,15.20
2018,07,19,07,43,15.20
2018,07,19,07,44,15.20
2018,07,19,07,45,15.30
2018,07,19,07,46,15.30
2018,07,19,07,47,15.30
2018,07,19,07,48,15.30
2018,07,19,07,49,15.30
2018,07,19,07,50,15.30
2018,07,19,07,51,15.30
2018,07,19,07,52,15.30
2018,07,19,07,53,15.40
2018,07,19,07,54,15.40
2018,07,19,07,55,15.40
2018,07,19,07,56,15.40
2018,07,19,07,57,15.50
2018,07,19,07,58,15.50
2018,07,19,07,59,15.50
2018,07,19,08,00,15.50
2018,07,19,08,01,15.50
2018,07,19,08,02,15.60
2018,07,19,08,03,15.60
2018,07,19,08,04,15.60
2018,07,19,08,05,15.60
2018,07,19,08,06,15.60
2018,07,19,08,07,15.60
2018,07,19,08,08,15.60
2018,07,19,08,09,15.60
2018,07,19,08,10,15.60
2018,07,19,08,11,15.60
2018,07,19,08,12,15.70
2018,07,19,08,13,15.70
2018,07,19,08,14,15.70
2018,07,19,08,15,15.70
2018,07,19,08,16,15.70
2018,07,19,08,17,15.70
2018,07,19,08,18,15.70
2018,07,19,08,19,15.80
2018,07,19,08,20,15.80
2018,07,19,08,21,15.80
2018,07,19,08,22,15.80
2018,07,19,08,23,15.80
2018,07,19,08,24,15.90
2018,07,19,08,25,15.90
2018,07,19,08,26,16.00
2018,07,19,08,27,16.00
2018,07,19,08,28,16.10
2018,07,19,08,29,16.10
2018,07,19,08,30,16.10
2018,07,19,08,31,16.20
2018,07,19,08,32,16.20
2018,07,19,08,33,16.20
2018,07,19,08,34,16.20
2018,07,19,08,35,16.20
2018,07,19,08,36,16.30
2018,07,19,08,37,16.30
2018,07,19,08,38,16.30
2018,07,19,08,39,16.30
2018,07,19,08,40,16.30
2018,07,19,08,41,16.40
2018,07,19,08,42,16.40
2018,07,19,08,43,16.40
2018,07,19,08,44,16.40
2018,07,19,08,45,16.40
2018,07,19,08,46,16.40
2018,07,19,08,47,16.40
2018,07,19,08,48,16.40
2018,07,19,08,49,16.40
2018,07,19,08,50,16.40
2018,07,19,08,51,16.40
2018,07,19,08,52,16.40
2018,07,19,08,53,16.50
2018,07,19,08,54,16.50
2018,07,19,08,55,16.50
2018,07,19,08,56,16.50
2018,07,19,08,57,16.50
2018,07,19,08,58,16.60
2018,07,19,08,59,16.60
2018,07,19,09,00,16.60
2018,07,19,09,01,16.70
2018,07,19,09,02,16.70
2018,07,19,09,03,16.70
2018,07,19,09,04,16.70
2018,07,19,09,05,16.70
2018,07,19,09,06,16.80
2018,07,19,09,07,16.80
2018,07,19,09,08,16.90
2018,07,19,09,09,16.90
2018,07,19,09,10,16.90
2018,07,19,09,11,17.00
2018,07,19,09,12,17.00
2018,07,19,09,13,17.10
2018,07,19,09,14,17.10
2018,07,19,09,15,17.10
2018,07,19,09,16,17.20
2018,07,19,09,17,17.20
2018,07,19,09,18,17.30
2018,07,19,09,19,17.30
2018,07,19,09,20,17.40
2018,07,19,09,21,17.40
2018,07,19,09,22,17.40
2018,07,19,09,23,17.40
2018,07,19,09,24,17.50
2018,07,19,09,25,17.50
2018,07,19,09,26,17.50
2018,07,19,09,27,17.60
2018,07,19,09,28,17.60
2018,07,19,09,29,17.60
2018,07,19,09,30,17.60
2018,07,19,09,31,17.60
2018,07,19,09,32,17.70
2018,07,19,09,33,17.70
2018,07,19,09,34,17.70
2018,07,19,09,35,17.70
2018,07,19,09,36,17.70
2018,07,19,09,37,17.80
2018,07,19,09,38,17.80
2018,07,19,09,39,17.80
2018,07,19,09,40,17.80
2018,07,19,09,41,17.80
2018,07,19,09,42,17.80
2018,07,19,09,43,17.80
2018,07,19,09,44,17.80
2018,07,19,09,45,17.80
2018,07,19,09,46,17.80
2018,07,19,09,47,17.80
2018,07,19,09,48,17.80
2018,07,19,09,49,17.80
2018,07,19,09,50,17.80
2018,07,19,09,51,17.80
2018,07,19,09,52,17.90
2018,07,19,09,53,17.90
2018,07,19,09,54,17.90
2018,07,19,09,55,17.90
2018,07,19,09,56,17.90
2018,07,19,09,57,17.90
2018,07,19,09,58,18.00
2018,07,19,09,59,18.00
2018,07,19,10,00,18.00
2018,07,19,10,01,18.10
2018,07,19,10,02,18.00
2018,07,19,10,03,18.00
2018,07,19,10,04,18.00
2018,07,19,10,05,17.90
2018,07,19,10,06,17.90
2018,07,19,10,07,17.90
2018,07,19,10,08,17.90
2018,07,19,10,09,17.90
2018,07,19,10,10,17.90
2018,07,19,10,11,18.00
2018,07,19,10,12,18.00
2018,07,19,10,13,18.10
2018,07,19,10,14,18.10
2018,07,19,10,15,18.20
2018,07,19,10,16,18.20
2018,07,19,10,17,18.20
2018,07,19,10,18,18.10
2018,07,19,10,19,18.10
2018,07,19,10,20,18.20
2018,07,19,10,21,18.20
2018,07,19,10,22,18.20
2018,07,19,10,23,18.30
2018,07,19,10,24,18.30
2018,07,19,10,25,18.40
2018,07,19,10,26,18.40
2018,07,19,10,27,18.50
2018,07,19,10,28,18.60
2018,07,19,10,29,18.70
2018,07,19,10,30,18.70
2018,07,19,10,31,18.70
2018,07,19,10,32,18.80
2018,07,19,10,33,18.80
2018,07,19,10,34,18.90
2018,07,19,10,35,18.90
2018,07,19,10,36,18.90
2018,07,19,10,37,18.90
2018,07,19,10,38,19.00
2018,07,19,10,39,19.00
2018,07,19,10,40,19.10
2018,07,19,10,41,19.00
2018,07,19,10,42,19.00
2018,07,19,10,43,19.00
2018,07,19,10,44,19.00
2018,07,19,10,45,19.10
2018,07,19,10,46,19.10
2018,07,19,10,47,19.20
2018,07,19,10,48,19.20
2018,07,19,10,49,19.20
2018,07,19,10,50,19.10
2018,07,19,10,51,19.20
2018,07,19,10,52,19.20
2018,07,19,10,53,19.20
2018,07,19,10,54,19.30
2018,07,19,10,55,19.30
2018,07,19,10,56,19.40
2018,07,19,10,57,19.40
2018,07,19,10,58,19.40
2018,07,19,10,59,19.40
2018,07,19,11,00,19.40
2018,07,19,11,01,19.40
2018,07,19,11,02,19.30
2018,07,19,11,03,19.30
2018,07,19,11,04,19.20
2018,07,19,11,05,19.00
2018,07,19,11,06,18.90
2018,07,19,11,07,18.80
2018,07,19,11,08,18.70
2018,07,19,11,09,18.70
2018,07,19,11,10,18.70
2018,07,19,11,11,18.70
2018,07,19,11,12,18.70
2018,07,19,11,13,18.70
2018,07,19,11,14,18.70
2018,07,19,11,15,18.80
2018,07,19,11,16,18.80
2018,07,19,11,17,18.90
2018,07,19,11,18,18.90
2018,07,19,11,19,19.00
2018,07,19,11,20,19.00
2018,07,19,11,21,19.00
2018,07,19,11,22,19.00
2018,07,19,11,23,18.90
2018,07,19,11,24,19.00
2018,07,19,11,25,19.00
2018,07,19,11,26,19.10
2018,07,19,11,27,19.20
2018,07,19,11,28,19.20
2018,07,19,11,29,19.20
2018,07,19,11,30,19.30
2018,07,19,11,31,19.30
2018,07,19,11,32,19.20
2018,07,19,11,33,19.30
2018,07,19,11,34,19.30
2018,07,19,11,35,19.30
2018,07,19,11,36,19.30
2018,07,19,11,37,19.30
2018,07,19,11,38,19.40
2018,07,19,11,39,19.40
2018,07,19,11,40,19.50
2018,07,19,11,41,19.50
2018,07,19,11,42,19.50
2018,07,19,11,43,19.50
2018,07,19,11,44,19.40
2018,07,19,11,45,19.40
2018,07,19,11,46,19.50
2018,07,19,11,47,19.50
2018,07,19,11,48,19.50
2018,07,19,11,49,19.50
2018,07,19,11,50,19.40
2018,07,19,11,51,19.40
2018,07,19,11,52,19.40
2018,07,19,11,53,19.30
2018,07,19,11,54,19.30
2018,07,19,11,55,19.30
2018,07,19,11,56,19.40
2018,07,19,11,57,19.40
2018,07,19,11,58,19.40
2018,07,19,11,59,19.40
2018,07,19,12,00,19.40
2018,07,19,12,01,19.40
2018,07,19,12,02,19.40
2018,07,19,12,03,19.40
2018,07,19,12,04,19.50
2018,07,19,12,05,19.60
2018,07,19,12,06,19.60
2018,07,19,12,07,19.60
2018,07,19,12,08,19.60
2018,07,19,12,09,19.60
2018,07,19,12,10,19.60
2018,07,19,12,11,19.60
2018,07,19,12,12,19.60
2018,07,19,12,13,19.60
2018,07,19,12,14,19.70
2018,07,19,12,15,19.70
2018,07,19,12,16,19.70
2018,07,19,12,17,19.70
2018,07,19,12,18,19.70
2018,07,19,12,19,19.70
2018,07,19,12,20,19.70
2018,07,19,12,21,19.70
2018,07,19,12,22,19.70
2018,07,19,12,23,19.80
2018,07,19,12,24,19.80
2018,07,19,12,25,19.80
2018,07,19,12,26,19.90
2018,07,19,12,27,20.00
2018,07,19,12,28,20.10
2018,07,19,12,29,20.10
2018,07,19,12,30,20.10
2018,07,19,12,31,20.10
2018,07,19,12,32,20.10
2018,07,19,12,33,20.10
2018,07,19,12,34,20.00
2018,07,19,12,35,20.00
2018,07,19,12,36,20.10
2018,07,19,12,37,20.10
2018,07,19,12,38,20.10
2018,07,19,12,39,20.10
2018,07,19,12,40,20.10
2018,07,19,12,41,20.10
2018,07,19,12,42,20.10
2018,07,19,12,43,20.20
2018,07,19,12,44,20.20
2018,07,19,12,45,20.20
2018,07,19,12,46,20.30
2018,07,19,12,47,20.40
2018,07,19,12,48,20.40
2018,07,19,12,49,20.50
2018,07,19,12,50,20.50
2018,07,19,12,51,20.50
2018,07,19,12,52,20.40
2018,07,19,12,53,20.40
2018,07,19,12,54,20.40
2018,07,19,12,55,20.40
2018,07,19,12,56,20.30
2018,07,19,12,57,20.30
2018,07,19,12,58,20.20
2018,07,19,12,59,20.10
2018,07,19,13,00,20.10
2018,07,19,13,01,20.10
2018,07,19,13,02,20.10
2018,07,19,13,03,20.10
2018,07,19,13,04,20.10
2018,07,19,13,05,20.10
2018,07,19,13,06,20.10
2018,07,19,13,07,20.10
2018,07,19,13,08,20.10
2018,07,19,13,09,20.10
2018,07,19,13,10,20.10
2018,07,19,13,11,20.10
2018,07,19,13,12,20.20
2018,07,19,13,13,20.30
2018,07,19,13,14,20.50
2018,07,19,13,15,20.60
2018,07,19,13,16,20.70
2018,07,19,13,17,20.80
2018,07,19,13,18,20.90
2018,07,19,13,19,20.90
2018,07,19,13,20,21.00
2018,07,19,13,21,21.00
2018,07,19,13,22,21.00
2018,07,19,13,23,21.10
2018,07,19,13,24,21.20
2018,07,19,13,25,21.30
2018,07,19,13,26,21.30
2018,07,19,13,27,21.30
2018,07,19,13,28,21.30
2018,07,19,13,29,21.30
2018,07,19,13,30,21.30
2018,07,19,13,31,21.30
2018,07,19,13,32,21.30
2018,07,19,13,33,21.30
2018,07,19,13,34,21.30
2018,07,19,13,35,21.30
2018,07,19,13,36,21.30
2018,07,19,13,37,21.30
2018,07,19,13,38,21.30
2018,07,19,13,39,21.30
2018,07,19,13,40,21.30
2018,07,19,13,41,21.30
2018,07,19,13,42,21.40
2018,07,19,13,43,21.40
2018,07,19,13,44,21.40
2018,07,19,13,45,21.50
2018,07,19,13,46,21.50
2018,07,19,13,47,21.60
2018,07,19,13,48,21.60
2018,07,19,13,49,21.60
2018,07,19,13,50,21.60
2018,07,19,13,51,21.60
2018,07,19,13,52,21.60
2018,07,19,13,53,21.50
2018,07,19,13,54,21.40
2018,07,19,13,55,21.30
2018,07,19,13,56,21.20
2018,07,19,13,57,21.10
2018,07,19,13,58,21.00
2018,07,19,13,59,20.90
2018,07,19,14,00,21.00
2018,07,19,14,01,21.10
2018,07,19,14,02,21.20
2018,07,19,14,03,21.30
2018,07,19,14,04,21.40
2018,07,19,14,05,21.40
2018,07,19,14,06,21.40
2018,07,19,14,07,21.40
2018,07,19,14,08,21.40
2018,07,19,14,09,21.40
2018,07,19,14,10,21.60
2018,07,19,14,11,21.60
2018,07,19,14,12,21.60
2018,07,19,14,13,21.60
2018,07,19,14,14,21.60
2018,07,19,14,15,21.60
2018,07,19,14,16,21.60
2018,07,19,14,17,21.60
2018,07,19,14,18,21.70
2018,07,19,14,19,21.80
2018,07,19,14,20,21.90
2018,07,19,14,21,21.90
2018,07,19,14,22,21.90
2018,07,19,14,23,21.90
2018,07,19,14,24,21.80
2018,07,19,14,25,21.70
2018,07,19,14,26,21.40
2018,07,19,14,27,21.20
2018,07,19,14,28,21.10
2018,07,19,14,29,21.10
2018,07,19,14,30,21.00
2018,07,19,14,31,21.00
2018,07,19,14,32,21.00
2018,07,19,14,33,21.00
2018,07,19,14,34,21.00
2018,07,19,14,35,21.00
2018,07,19,14,36,20.90
2018,07,19,14,37,21.00
2018,07,19,14,38,21.00
2018,07,19,14,39,21.10
2018,07,19,14,40,21.10
2018,07,19,14,41,21.10
2018,07,19,14,42,20.90
2018,07,19,14,43,20.80
2018,07,19,14,44,20.60
2018,07,19,14,45,20.30
2018,07,19,14,46,20.00
2018,07,19,14,47,19.90
2018,07,19,14,48,19.80
2018,07,19,14,49,19.80
2018,07,19,14,50,19.80
2018,07,19,14,51,19.70
2018,07,19,14,52,19.70
2018,07,19,14,53,19.50
2018,07,19,14,54,19.40
2018,07,19,14,55,19.40
2018,07,19,14,56,19.30
2018,07,19,14,57,19.20
2018,07,19,14,58,19.10
2018,07,19,14,59,19.00
2018,07,19,15,00,18.90
2018,07,19,15,01,18.90
2018,07,19,15,02,18.90
2018,07,19,15,03,18.90
2018,07,19,15,04,18.90
2018,07,19,15,05,18.80
2018,07,19,15,06,18.80
2018,07,19,15,07,18.70
2018,07,19,15,08,18.60
2018,07,19,15,09,18.60
2018,07,19,15,10,18.60
2018,07,19,15,11,18.70
2018,07,19,15,12,18.70
2018,07,19,15,13,18.70
2018,07,19,15,14,18.70
2018,07,19,15,15,18.60
2018,07,19,15,16,18.50
2018,07,19,15,17,18.50
2018,07,19,15,18,18.30
2018,07,19,15,19,18.30
2018,07,19,15,20,18.30
2018,07,19,15,21,18.40
2018,07,19,15,22,18.60
2018,07,19,15,23,18.60
2018,07,19,15,24,18.70
2018,07,19,15,25,18.70
2018,07,19,15,26,18.80
2018,07,19,15,27,18.80
2018,07,19,15,28,18.80
2018,07,19,15,29,18.80
2018,07,19,15,30,18.80
2018,07,19,15,31,18.80
2018,07,19,15,32,18.80
2018,07,19,15,33,18.90
2018,07,19,15,34,18.90
2018,07,19,15,35,18.90
2018,07,19,15,36,18.90
2018,07,19,15,37,19.00
2018,07,19,15,38,19.00
2018,07,19,15,39,19.10
2018,07,19,15,40,19.20
2018,07,19,15,41,19.30
2018,07,19,15,42,19.30
2018,07,19,15,43,19.30
2018,07,19,15,44,19.30
2018,07,19,15,45,19.30
2018,07,19,15,46,19.30
2018,07,19,15,47,19.30
2018,07,19,15,48,19.30
2018,07,19,15,49,19.50
2018,07,19,15,50,19.60
2018,07,19,15,51,19.60
2018,07,19,15,52,19.60
2018,07,19,15,53,19.70
2018,07,19,15,54,19.70
2018,07,19,15,55,19.70
2018,07,19,15,56,19.70
2018,07,19,15,57,19.70
2018,07,19,15,58,19.70
2018,07,19,15,59,19.60
2018,07,19,16,00,19.60
2018,07,19,16,01,19.50
2018,07,19,16,02,19.50
2018,07,19,16,03,19.40
2018,07,19,16,04,19.30
2018,07,19,16,05,19.40
2018,07,19,16,06,19.40
2018,07,19,16,07,19.50
2018,07,19,16,08,19.50
2018,07,19,16,09,19.40
2018,07,19,16,10,19.40
2018,07,19,16,11,19.40
2018,07,19,16,12,19.40
2018,07,19,16,13,19.40
2018,07,19,16,14,19.30
2018,07,19,16,15,19.20
2018,07,19,16,16,19.10
2018,07,19,16,17,19.10
2018,07,19,16,18,19.10
2018,07,19,16,19,19.10
2018,07,19,16,20,19.20
2018,07,19,16,21,19.10
2018,07,19,16,22,19.00
2018,07,19,16,23,19.00
2018,07,19,16,24,18.90
2018,07,19,16,25,18.90
2018,07,19,16,26,18.80
2018,07,19,16,27,18.90
2018,07,19,16,28,18.90
2018,07,19,16,29,19.00
2018,07,19,16,30,19.00
2018,07,19,16,31,19.10
2018,07,19,16,32,19.10
2018,07,19,16,33,19.10
2018,07,19,16,34,19.10
2018,07,19,16,35,19.20
2018,07,19,16,36,19.30
2018,07,19,16,37,19.40
2018,07,19,16,38,19.40
2018,07,19,16,39,19.40
2018,07,19,16,40,19.40
2018,07,19,16,41,19.40
2018,07,19,16,42,19.30
2018,07,19,16,43,19.30
2018,07,19,16,44,19.30
2018,07,19,16,45,19.40
2018,07,19,16,46,19.50
2018,07,19,16,47,19.50
2018,07,19,16,48,19.60
2018,07,19,16,49,19.70
2018,07,19,16,50,19.80
2018,07,19,16,51,19.90
2018,07,19,16,52,20.10
2018,07,19,16,53,20.40
2018,07,19,16,54,20.60
2018,07,19,16,55,20.80
2018,07,19,16,56,21.00
2018,07,19,16,57,21.20
2018,07,19,16,58,21.20
2018,07,19,16,59,21.20
2018,07,19,17,00,21.10
2018,07,19,17,01,21.10
2018,07,19,17,02,21.20
2018,07,19,17,03,21.20
2018,07,19,17,04,21.30
2018,07,19,17,05,21.40
2018,07,19,17,06,21.50
2018,07,19,17,07,21.60
2018,07,19,17,08,21.50
2018,07,19,17,09,21.40
2018,07,19,17,10,21.30
2018,07,19,17,11,21.20
2018,07,19,17,12,21.00
2018,07,19,17,13,20.80
2018,07,19,17,14,20.80
2018,07,19,17,15,20.90
2018,07,19,17,16,21.00
2018,07,19,17,17,21.10
2018,07,19,17,18,21.00
2018,07,19,17,19,20.90